#Datum;Uhrzeit;WR;Pac;DaySum;Status;WR;Pac;DaySum;Status;Pdc1;Udc;Temp;WR;Pac;DaySum;Status;Pdc1;Udc;Temp;WR;Pac;DaySum;Status;Pdc1;Udc;Temp;WR;Pac;DaySum;Status;Pdc1;Pdc2;Udc1;Udc2;Temp;WR;Pac;DaySum;Status;Pdc1;Pdc2;Udc1;Udc2;Temp;WR;Pac;DaySum;Status;Pdc1;Udc;Temp;WR;Pac;DaySum;Status;Pdc1;Udc;Temp;WR;Pac;DaySum;Status;Pdc1;Udc;Temp
09.02.18;23:55:00;1;631;15191;0;2;0;39;0;0;0;0;3;0;23;0;0;0;0;4;0;31;0;0;0;0;5;0;629;0;0;0;0;0;0;6;0;341;0;0;0;0;0;0;7;0;1812;0;0;0;0;8;0;4287;0;0;0;0;9;0;2365;0;0;0;0
09.02.18;23:50:00;1;2258;15111;0;2;0;39;0;0;0;0;3;0;23;0;0;0;0;4;0;31;0;0;0;0;5;0;629;0;0;0;0;0;0;6;0;341;0;0;0;0;0;0;7;0;1812;0;0;0;0;8;0;4287;0;0;0;0;9;0;2365;0;0;0;0
09.02.18;23:45:00;1;2286;14921;0;2;0;39;0;0;0;0;3;0;23;0;0;0;0;4;0;31;0;0;0;0;5;0;629;0;0;0;0;0;0;6;0;341;0;0;0;0;0;0;7;0;1812;0;0;0;0;8;0;4287;0;0;0;0;9;0;2365;0;0;0;0
09.02.18;23:40:00;1;2064;14731;0;2;0;39;0;0;0;0;3;0;23;0;0;0;0;4;0;31;0;0;0;0;5;0;629;0;0;0;0;0;0;6;0;341;0;0;0;0;0;0;7;0;1812;0;0;0;0;8;0;4287;0;0;0;0;9;0;2365;0;0;0;0
09.02.18;23:35:00;1;912;14571;0;2;0;39;0;0;0;0;3;0;23;0;0;0;0;4;0;31;0;0;0;0;5;0;629;0;0;0;0;0;0;6;0;341;0;0;0;0;0;0;7;0;1812;0;0;0;0;8;0;4287;0;0;0;0;9;0;2365;0;0;0;0
09.02.18;23:30:00;1;647;14457;0;2;0;39;0;0;0;0;3;0;23;0;0;0;0;4;0;31;0;0;0;0;5;0;629;0;0;0;0;0;0;6;0;341;0;0;0;0;0;0;7;0;1812;0;0;0;0;8;0;4287;0;0;0;0;9;0;2365;0;0;0;0
09.02.18;23:25:00;1;830;14406;0;2;0;39;0;0;0;0;3;0;23;0;0;0;0;4;0;31;0;0;0;0;5;0;629;0;0;0;0;0;0;6;0;341;0;0;0;0;0;0;7;0;1812;0;0;0;0;8;0;4287;0;0;0;0;9;0;2365;0;0;0;0
09.02.18;23:20:00;1;1275;14342;0;2;0;39;0;0;0;0;3;0;23;0;0;0;0;4;0;31;0;0;0;0;5;0;629;0;0;0;0;0;0;6;0;341;0;0;0;0;0;0;7;0;1812;0;0;0;0;8;0;4287;0;0;0;0;9;0;2365;0;0;0;0
09.02.18;23:15:00;1;2163;14237;0;2;0;39;0;0;0;0;3;0;23;0;0;0;0;4;0;31;0;0;0;0;5;0;629;0;0;0;0;0;0;6;0;341;0;0;0;0;0;0;7;0;1812;0;0;0;0;8;0;4287;0;0;0;0;9;0;2365;0;0;0;0
09.02.18;23:10:00;1;495;14068;0;2;0;39;0;0;0;0;3;0;23;0;0;0;0;4;0;31;0;0;0;0;5;0;629;0;0;0;0;0;0;6;0;341;0;0;0;0;0;0;7;0;1812;0;0;0;0;8;0;4287;0;0;0;0;9;0;2365;0;0;0;0
09.02.18;23:05:00;1;2362;14027;0;2;0;39;0;0;0;0;3;0;23;0;0;0;0;4;0;31;0;0;0;0;5;0;629;0;0;0;0;0;0;6;0;341;0;0;0;0;0;0;7;0;1812;0;0;0;0;8;0;4287;0;0;0;0;9;0;2365;0;0;0;0
09.02.18;23:00:00;1;1824;13859;0;2;0;39;0;0;0;0;3;0;23;0;0;0;0;4;0;31;0;0;0;0;5;0;629;0;0;0;0;0;0;6;0;341;0;0;0;0;0;0;7;0;1812;0;0;0;0;8;0;4287;0;0;0;0;9;0;2365;0;0;0;0
09.02.18;22:55:00;1;2403;13709;0;2;0;39;0;0;0;0;3;0;23;0;0;0;0;4;0;31;0;0;0;0;5;0;629;2;0;0;0;0;0;6;0;341;2;0;0;0;0;0;7;0;1812;0;0;0;0;8;0;4287;0;0;0;0;9;0;2365;0;0;0;0
09.02.18;22:50:00;1;1224;13507;0;2;0;39;0;0;0;0;3;0;23;0;0;0;0;4;0;31;0;0;0;0;5;0;629;2;0;0;0;0;0;6;0;341;2;0;0;0;0;0;7;0;1812;0;0;0;0;8;0;4287;0;0;0;0;9;0;2365;0;0;0;0
09.02.18;22:45:00;1;469;13409;0;2;0;39;0;0;0;0;3;0;23;0;0;0;0;4;0;31;0;0;0;0;5;0;629;2;0;0;0;0;0;6;0;341;2;0;0;0;0;0;7;0;1812;0;0;0;0;8;0;4287;0;0;0;0;9;0;2365;0;0;0;0
09.02.18;22:40:00;1;1194;13350;0;2;0;39;0;0;0;0;3;0;23;0;0;0;0;4;0;31;0;0;0;0;5;0;629;2;0;0;0;0;0;6;0;341;2;0;0;0;0;0;7;0;1812;0;0;0;0;8;0;4287;0;0;0;0;9;0;2365;0;0;0;0
09.02.18;22:35:00;1;1017;13271;0;2;0;39;0;0;0;0;3;0;23;0;0;0;0;4;0;31;0;0;0;0;5;0;629;2;0;0;0;0;0;6;0;341;2;0;0;0;0;0;7;0;1812;0;0;0;0;8;0;4287;0;0;0;0;9;0;2365;0;0;0;0
09.02.18;22:30:00;1;1667;13204;0;2;0;39;0;0;0;0;3;0;23;0;0;0;0;4;0;31;0;0;0;0;5;0;629;2;0;0;0;0;0;6;0;341;2;0;0;0;0;0;7;0;1812;0;0;0;0;8;0;4287;0;0;0;0;9;0;2365;0;0;0;0
09.02.18;22:25:00;1;1651;13118;0;2;0;39;0;0;0;0;3;0;23;0;0;0;0;4;0;31;0;0;0;0;5;0;629;2;0;0;0;0;0;6;0;341;2;0;0;0;0;0;7;0;1812;0;0;0;0;8;0;4287;0;0;0;0;9;0;2365;0;0;0;0
09.02.18;22:20:00;1;1039;12980;0;2;0;39;0;0;0;0;3;0;23;0;0;0;0;4;0;31;0;0;0;0;5;0;629;2;0;0;0;0;0;6;0;341;2;0;0;0;0;0;7;0;1812;0;0;0;0;8;0;4287;0;0;0;0;9;0;2365;0;0;0;0
09.02.18;22:15:00;1;1570;12853;0;2;0;39;0;0;0;0;3;0;23;0;0;0;0;4;0;31;0;0;0;0;5;0;629;2;0;0;0;0;0;6;0;341;2;0;0;0;0;0;7;0;1812;0;0;0;0;8;0;4287;0;0;0;0;9;0;2365;0;0;0;0
09.02.18;22:10:00;1;1850;12702;0;2;0;39;0;0;0;0;3;0;23;0;0;0;0;4;0;31;0;0;0;0;5;0;629;2;0;0;0;0;0;6;0;341;2;0;0;0;0;0;7;0;1812;0;0;0;0;8;0;4287;0;0;0;0;9;0;2365;0;0;0;0
09.02.18;22:05:00;1;1844;12579;0;2;0;39;0;0;0;0;3;0;23;0;0;0;0;4;0;31;0;0;0;0;5;0;629;2;0;0;0;0;0;6;0;341;2;0;0;0;0;0;7;0;1812;0;0;0;0;8;0;4287;0;0;0;0;9;0;2365;0;0;0;0
09.02.18;22:00:00;1;2374;12445;0;2;0;39;0;0;0;0;3;0;23;0;0;0;0;4;0;31;0;0;0;0;5;0;629;2;0;0;0;0;0;6;0;341;2;0;0;0;0;0;7;0;1812;0;0;0;0;8;0;4287;0;0;0;0;9;0;2365;0;0;0;0
09.02.18;21:55:00;1;898;12230;0;2;0;39;0;0;0;0;3;0;23;0;0;0;0;4;0;31;0;0;0;0;5;0;629;2;0;0;0;0;0;6;0;341;2;0;0;0;0;0;7;0;1812;0;0;0;0;8;0;4287;0;0;0;0;9;0;2365;0;0;0;0
09.02.18;21:50:00;1;446;12162;0;2;0;39;0;0;0;0;3;0;23;0;0;0;0;4;0;31;0;0;0;0;5;0;629;2;0;0;0;0;0;6;0;341;2;0;0;0;0;0;7;0;1812;0;0;0;0;8;0;4287;0;0;0;0;9;0;2365;0;0;0;0
09.02.18;21:45:00;1;407;12125;0;2;0;39;0;0;0;0;3;0;23;0;0;0;0;4;0;31;0;0;0;0;5;0;629;2;0;0;0;0;0;6;0;341;2;0;0;0;0;0;7;0;1812;0;0;0;0;8;0;4287;0;0;0;0;9;0;2365;0;0;0;0
09.02.18;21:40:00;1;338;12093;0;2;0;39;0;0;0;0;3;0;23;0;0;0;0;4;0;31;0;0;0;0;5;0;629;2;0;0;0;0;0;6;0;341;2;0;0;0;0;0;7;0;1812;0;0;0;0;8;0;4287;0;0;0;0;9;0;2365;0;0;0;0
09.02.18;21:35:00;1;383;12065;0;2;0;39;0;0;0;0;3;0;23;0;0;0;0;4;0;31;0;0;0;0;5;0;629;2;0;0;0;0;0;6;0;341;2;0;0;0;0;0;7;0;1812;0;0;0;0;8;0;4287;0;0;0;0;9;0;2365;0;0;0;0
09.02.18;21:30:00;1;384;12033;0;2;0;39;0;0;0;0;3;0;23;0;0;0;0;4;0;31;0;0;0;0;5;0;629;2;0;0;0;0;0;6;0;341;2;0;0;0;0;0;7;0;1812;0;0;0;0;8;0;4287;0;0;0;0;9;0;2365;0;0;0;0
09.02.18;21:25:00;1;410;12001;0;2;0;39;0;0;0;0;3;0;23;0;0;0;0;4;0;31;0;0;0;0;5;0;629;2;0;0;0;0;0;6;0;341;2;0;0;0;0;0;7;0;1812;0;0;0;0;8;0;4287;0;0;0;0;9;0;2365;0;0;0;0
09.02.18;21:20:00;1;345;11967;0;2;0;39;0;0;0;0;3;0;23;0;0;0;0;4;0;31;0;0;0;0;5;0;629;2;0;0;0;0;0;6;0;341;2;0;0;0;0;0;7;0;1812;0;0;0;0;8;0;4287;0;0;0;0;9;0;2365;0;0;0;0
09.02.18;21:15:00;1;324;11938;0;2;0;39;0;0;0;0;3;0;23;0;0;0;0;4;0;31;0;0;0;0;5;0;629;2;0;0;0;0;0;6;0;341;2;0;0;0;0;0;7;0;1812;0;0;0;0;8;0;4287;0;0;0;0;9;0;2365;0;0;0;0
09.02.18;21:10:00;1;691;11894;0;2;0;39;0;0;0;0;3;0;23;0;0;0;0;4;0;31;0;0;0;0;5;0;629;2;0;0;0;0;0;6;0;341;2;0;0;0;0;0;7;0;1812;0;0;0;0;8;0;4287;0;0;0;0;9;0;2365;0;0;0;0
09.02.18;21:05:00;1;257;11856;0;2;0;39;0;0;0;0;3;0;23;0;0;0;0;4;0;31;0;0;0;0;5;0;629;2;0;0;0;0;0;6;0;341;2;0;0;0;0;0;7;0;1812;0;0;0;0;8;0;4287;0;0;0;0;9;0;2365;0;0;0;0
09.02.18;21:00:00;1;260;11834;0;2;0;39;0;0;0;0;3;0;23;0;0;0;0;4;0;31;0;0;0;0;5;0;629;2;0;0;0;0;0;6;0;341;2;0;0;0;0;0;7;0;1812;0;0;0;0;8;0;4287;0;0;0;0;9;0;2365;0;0;0;0
09.02.18;20:55:00;1;266;11812;0;2;0;39;0;0;0;0;3;0;23;0;0;0;0;4;0;31;0;0;0;0;5;0;629;2;0;0;0;0;0;6;0;341;2;0;0;0;0;0;7;0;1812;0;0;0;0;8;0;4287;0;0;0;0;9;0;2365;0;0;0;0
09.02.18;20:50:00;1;282;11789;0;2;0;39;0;0;0;0;3;0;23;0;0;0;0;4;0;31;0;0;0;0;5;0;629;2;0;0;0;0;0;6;0;341;2;0;0;0;0;0;7;0;1812;0;0;0;0;8;0;4287;0;0;0;0;9;0;2365;0;0;0;0
09.02.18;20:45:00;1;286;11765;0;2;0;39;0;0;0;0;3;0;23;0;0;0;0;4;0;31;0;0;0;0;5;0;629;2;0;0;0;0;0;6;0;341;2;0;0;0;0;0;7;0;1812;0;0;0;0;8;0;4287;0;0;0;0;9;0;2365;0;0;0;0
09.02.18;20:40:00;1;304;11741;0;2;0;39;0;0;0;0;3;0;23;0;0;0;0;4;0;31;0;0;0;0;5;0;629;2;0;0;0;0;0;6;0;341;2;0;0;0;0;0;7;0;1812;0;0;0;0;8;0;4287;0;0;0;0;9;0;2365;0;0;0;0
09.02.18;20:35:00;1;313;11716;0;2;0;39;0;0;0;0;3;0;23;0;0;0;0;4;0;31;0;0;0;0;5;0;629;2;0;0;0;0;0;6;0;341;2;0;0;0;0;0;7;0;1812;0;0;0;0;8;0;4287;0;0;0;0;9;0;2365;0;0;0;0
09.02.18;20:30:00;1;277;11690;0;2;0;39;0;0;0;0;3;0;23;0;0;0;0;4;0;31;0;0;0;0;5;0;629;2;0;0;0;0;0;6;0;341;2;0;0;0;0;0;7;0;1812;0;0;0;0;8;0;4287;0;0;0;0;9;0;2365;0;0;0;0
09.02.18;20:25:00;1;273;11666;0;2;0;39;0;0;0;0;3;0;23;0;0;0;0;4;0;31;0;0;0;0;5;0;629;2;0;0;0;0;0;6;0;341;2;0;0;0;0;0;7;0;1812;0;0;0;0;8;0;4287;0;0;0;0;9;0;2365;0;0;0;0
09.02.18;20:20:00;1;272;11643;0;2;0;39;0;0;0;0;3;0;23;0;0;0;0;4;0;31;0;0;0;0;5;0;629;2;0;0;0;0;0;6;0;341;2;0;0;0;0;0;7;0;1812;0;0;0;0;8;0;4287;0;0;0;0;9;0;2365;0;0;0;0
09.02.18;20:15:00;1;340;11620;0;2;0;39;0;0;0;0;3;0;23;0;0;0;0;4;0;31;0;0;0;0;5;0;629;2;0;0;0;0;0;6;0;341;2;0;0;0;0;0;7;0;1812;0;0;0;0;8;0;4287;0;0;0;0;9;0;2365;0;0;0;0
09.02.18;20:10:00;1;1167;11575;0;2;0;39;0;0;0;0;3;0;23;0;0;0;0;4;0;31;0;0;0;0;5;0;629;2;0;0;0;0;0;6;0;341;2;0;0;0;0;0;7;0;1812;0;0;0;0;8;0;4287;0;0;0;0;9;0;2365;0;0;0;0
09.02.18;20:05:00;1;954;11479;0;2;0;39;0;0;0;0;3;0;23;0;0;0;0;4;0;31;0;0;0;0;5;0;629;2;0;0;0;0;0;6;0;341;2;0;0;0;0;0;7;0;1812;0;0;0;0;8;0;4287;0;0;0;0;9;0;2365;0;0;0;0
09.02.18;20:00:00;1;1375;11387;0;2;0;39;0;0;0;0;3;0;23;0;0;0;0;4;0;31;0;0;0;0;5;0;629;2;0;0;0;0;0;6;0;341;2;0;0;0;0;0;7;0;1812;0;0;0;0;8;0;4287;0;0;0;0;9;0;2365;0;0;0;0
09.02.18;19:55:00;1;1759;11257;0;2;0;39;0;0;0;0;3;0;23;0;0;0;0;4;0;31;0;0;0;0;5;0;629;2;0;0;0;0;0;6;0;341;2;0;0;0;0;0;7;0;1812;0;0;0;0;8;0;4287;0;0;0;0;9;0;2365;0;0;0;0
09.02.18;19:50:00;1;385;11144;0;2;0;39;0;0;0;0;3;0;23;0;0;0;0;4;0;31;0;0;0;0;5;0;629;2;0;0;0;0;0;6;0;341;2;0;0;0;0;0;7;0;1812;0;0;0;0;8;0;4287;0;0;0;0;9;0;2365;0;0;0;0
09.02.18;19:45:00;1;413;11112;0;2;0;39;0;0;0;0;3;0;23;0;0;0;0;4;0;31;0;0;0;0;5;0;629;2;0;0;0;0;0;6;0;341;2;0;0;0;0;0;7;0;1812;0;0;0;0;8;0;4287;0;0;0;0;9;0;2365;0;0;0;0
09.02.18;19:40:00;1;1454;11053;0;2;0;39;0;0;0;0;3;0;23;0;0;0;0;4;0;31;0;0;0;0;5;0;629;2;0;0;0;0;0;6;0;341;2;0;0;0;0;0;7;0;1812;0;0;0;0;8;0;4287;0;0;0;0;9;0;2365;0;0;0;0
09.02.18;19:35:00;1;1730;10940;0;2;0;39;0;0;0;0;3;0;23;0;0;0;0;4;0;31;0;0;0;0;5;0;629;2;0;0;0;0;0;6;0;341;2;0;0;0;0;0;7;0;1812;0;0;0;0;8;0;4287;0;0;0;0;9;0;2365;0;0;0;0
09.02.18;19:30:00;1;2301;10801;0;2;0;39;0;0;0;0;3;0;23;0;0;0;0;4;0;31;0;0;0;0;5;0;629;2;0;0;0;0;0;6;0;341;2;0;0;0;0;0;7;0;1812;0;0;0;0;8;0;4287;0;0;0;0;9;0;2365;0;0;0;0
09.02.18;19:25:00;1;2291;10611;0;2;0;39;0;0;0;0;3;0;23;0;0;0;0;4;0;31;0;0;0;0;5;0;629;2;0;0;0;0;0;6;0;341;2;0;0;0;0;0;7;0;1812;0;0;0;0;8;0;4287;0;0;0;0;9;0;2365;0;0;0;0
09.02.18;19:20:00;1;860;10419;0;2;0;39;0;0;0;0;3;0;23;0;0;0;0;4;0;31;0;0;0;0;5;0;629;2;0;0;0;0;0;6;0;341;2;0;0;0;0;0;7;0;1812;0;0;0;0;8;0;4287;0;0;0;0;9;0;2365;0;0;0;0
09.02.18;19:15:00;1;295;10344;0;2;0;39;0;0;0;0;3;0;23;0;0;0;0;4;0;31;0;0;0;0;5;0;629;2;0;0;0;0;0;6;0;341;2;0;0;0;0;0;7;0;1812;0;0;0;0;8;0;4287;0;0;0;0;9;0;2365;0;0;0;0
09.02.18;19:10:00;1;304;10320;0;2;0;39;0;0;0;0;3;0;23;0;0;0;0;4;0;31;0;0;0;0;5;0;629;2;0;0;0;0;0;6;0;341;2;0;0;0;0;0;7;0;1812;0;0;0;0;8;0;4287;0;0;0;0;9;0;2365;0;0;0;0
09.02.18;19:05:00;1;317;10295;0;2;0;39;0;0;0;0;3;0;23;0;0;0;0;4;0;31;0;0;0;0;5;0;629;2;0;0;0;0;0;6;0;341;2;0;0;0;0;0;7;0;1812;0;0;0;0;8;0;4287;0;0;0;0;9;0;2365;0;0;0;0
09.02.18;19:00:00;1;359;10271;0;2;0;39;0;0;0;0;3;0;23;0;0;0;0;4;0;31;0;0;0;0;5;0;629;2;0;0;0;0;0;6;0;341;2;0;0;0;0;0;7;0;1812;0;0;0;0;8;0;4287;0;0;0;0;9;0;2365;0;0;0;0
09.02.18;18:55:00;1;585;10241;0;2;0;39;0;0;0;0;3;0;23;0;0;0;0;4;0;31;0;0;0;0;5;0;629;2;0;0;0;0;0;6;0;341;2;0;0;0;0;0;7;0;1812;0;0;0;0;8;0;4287;0;0;0;0;9;0;2365;0;0;0;0
09.02.18;18:50:00;1;673;10193;0;2;0;39;0;0;0;0;3;0;23;0;0;0;0;4;0;31;0;0;0;0;5;0;629;2;0;0;0;0;0;6;0;341;2;0;0;0;0;0;7;0;1812;0;0;0;0;8;0;4287;0;0;0;0;9;0;2365;0;0;0;0
09.02.18;18:45:00;1;951;10139;0;2;0;39;0;0;0;0;3;0;23;0;0;0;0;4;0;31;0;0;0;0;5;0;629;2;0;0;0;0;0;6;0;341;2;0;0;0;0;0;7;0;1812;0;0;0;0;8;0;4287;0;0;0;0;9;0;2365;0;0;0;0
09.02.18;18:40:00;1;538;10063;0;2;0;39;0;0;0;0;3;0;23;0;0;0;0;4;0;31;0;0;0;0;5;0;629;2;0;0;0;0;0;6;0;341;2;0;0;0;0;0;7;0;1812;0;0;0;0;8;0;4287;0;0;0;0;9;0;2365;0;0;0;0
09.02.18;18:35:00;1;547;10018;0;2;0;39;0;0;0;0;3;0;23;0;0;0;0;4;0;31;0;0;0;0;5;0;629;2;0;0;0;0;0;6;0;341;2;0;0;0;0;0;7;0;1812;0;0;0;0;8;0;4287;0;0;0;0;9;0;2365;0;0;0;0
09.02.18;18:30:00;1;877;9972;0;2;0;39;0;0;0;0;3;0;23;0;0;0;0;4;0;31;0;0;0;0;5;0;629;2;0;0;0;0;0;6;0;341;2;0;0;0;0;0;7;0;1812;0;0;0;0;8;0;4287;0;0;0;0;9;0;2365;0;0;0;0
09.02.18;18:25:00;1;636;9891;0;2;0;39;0;0;0;0;3;0;23;0;0;0;0;4;0;31;0;0;0;0;5;0;629;2;0;0;0;0;0;6;0;341;2;0;0;0;0;0;7;0;1812;0;0;0;0;8;0;4287;0;0;0;0;9;0;2365;0;0;0;0
09.02.18;18:20:00;1;648;9838;0;2;0;39;0;0;0;0;3;0;23;0;0;0;0;4;0;31;0;0;0;0;5;0;629;2;0;0;0;0;0;6;0;341;2;0;0;0;0;0;7;0;1812;0;0;0;0;8;0;4287;0;0;0;0;9;0;2365;0;0;0;0
09.02.18;18:15:00;1;662;9783;0;2;0;39;0;0;0;0;3;0;23;0;0;0;0;4;0;31;0;0;0;0;5;0;629;2;0;0;0;0;0;6;0;341;2;0;0;0;0;0;7;0;1812;0;0;0;0;8;0;4287;0;0;0;0;9;0;2365;0;0;0;0
09.02.18;18:10:00;1;640;9727;0;2;0;39;0;0;0;0;3;0;23;0;0;0;0;4;0;31;0;0;0;0;5;0;629;2;0;0;0;0;0;6;0;341;2;0;0;0;0;0;7;0;1812;0;0;0;0;8;0;4287;0;0;0;0;9;0;2365;0;0;0;0
09.02.18;18:05:00;1;876;9676;0;2;0;39;0;0;0;0;3;0;23;0;0;0;0;4;0;31;0;0;0;0;5;0;629;2;0;0;0;0;0;6;0;341;2;0;0;0;0;0;7;0;1812;0;0;0;0;8;0;4287;0;0;0;0;9;0;2365;0;0;0;0
09.02.18;18:00:00;1;1612;9611;0;2;0;39;0;0;0;0;3;0;23;0;0;0;0;4;0;31;0;0;0;0;5;0;629;2;0;0;0;0;0;6;0;341;2;0;0;0;0;0;7;0;1812;0;0;0;0;8;0;4287;0;0;0;0;9;0;2365;0;0;0;0
09.02.18;17:55:00;1;366;9491;0;2;0;39;0;0;0;0;3;0;23;0;0;0;0;4;0;31;0;0;0;0;5;0;629;2;0;0;0;0;0;6;0;341;2;0;0;0;0;0;7;0;1812;0;0;0;0;8;0;4287;0;0;0;0;9;0;2365;0;0;0;0
09.02.18;17:50:00;1;1444;9460;0;2;0;39;0;0;0;0;3;0;23;0;0;0;0;4;0;31;0;0;0;0;5;0;629;2;0;0;0;0;0;6;0;341;2;0;0;0;0;0;7;0;1812;0;0;0;0;8;0;4287;0;0;0;0;9;0;2365;0;0;0;0
09.02.18;17:45:00;1;418;9352;0;2;0;39;0;0;0;0;3;0;23;0;0;0;0;4;0;31;0;0;0;0;5;0;629;2;0;0;0;0;0;6;0;341;2;0;0;0;0;0;7;0;1812;0;0;0;0;8;0;4287;0;0;0;0;9;0;2365;0;0;0;0
09.02.18;17:40:00;1;390;9317;0;2;0;39;0;0;0;0;3;0;23;0;0;0;0;4;0;31;0;0;0;0;5;0;629;2;0;0;0;0;0;6;0;341;2;0;0;0;0;0;7;0;1812;0;0;0;0;8;0;4287;0;0;0;0;9;0;2365;0;0;0;0
09.02.18;17:35:00;1;324;9285;0;2;0;39;0;0;0;0;3;0;23;0;0;0;0;4;0;31;0;0;0;0;5;0;629;2;0;0;0;0;0;6;0;341;2;0;0;0;0;0;7;0;1812;0;0;0;0;8;0;4287;0;0;0;0;9;0;2365;0;0;0;0
09.02.18;17:30:00;1;332;9259;0;2;0;39;0;0;0;0;3;0;23;0;0;148;6;4;0;31;0;0;0;0;5;0;629;2;0;0;0;0;0;6;0;341;2;0;0;0;0;0;7;0;1812;0;0;0;0;8;0;4287;0;0;0;0;9;0;2365;0;0;0;0
09.02.18;17:25:00;1;584;9231;0;2;0;39;0;0;83;2;3;0;23;6;0;288;11;4;0;31;0;0;0;0;5;0;629;2;0;0;0;0;0;6;0;341;2;0;0;0;0;0;7;0;1812;0;0;0;0;8;0;4287;0;0;0;0;9;0;2365;0;0;0;0
09.02.18;17:20:00;1;418;9172;0;2;0;39;6;0;273;7;3;0;23;6;0;300;11;4;0;31;0;0;11;0;5;0;629;2;0;0;0;0;0;6;0;341;2;0;0;0;0;0;7;0;1812;0;0;0;0;8;0;4287;0;0;0;0;9;0;2365;0;0;0;0
09.02.18;17:15:00;1;2201;9137;0;2;0;39;6;0;296;7;3;0;23;6;0;328;11;4;0;31;2;0;81;3;5;0;629;2;0;0;0;0;0;6;0;341;2;0;0;0;0;0;7;0;1812;0;0;154;6;8;0;4287;0;0;211;8;9;0;2365;6;0;280;7
09.02.18;17:10:00;1;2466;8934;0;2;0;39;6;0;318;7;3;0;23;6;0;380;11;4;0;31;1;0;107;3;5;0;629;2;0;0;0;0;0;6;0;341;2;0;0;0;0;0;7;0;1812;6;0;313;10;8;0;4287;6;0;326;10;9;0;2365;6;0;345;7
09.02.18;17:05:00;1;2416;8727;0;2;0;39;6;0;347;7;3;0;23;6;0;418;11;4;0;31;1;0;133;3;5;0;629;2;0;0;0;0;0;6;0;341;0;0;0;0;0;0;7;0;1812;6;0;376;10;8;0;4287;6;0;391;11;9;0;2365;6;0;421;8
09.02.18;17:00:00;1;2354;8526;0;2;0;39;6;0;363;7;3;0;23;4;0;433;11;4;0;31;1;0;147;4;5;0;629;2;0;0;0;0;0;6;0;341;1;0;0;0;0;3;7;0;1812;6;0;410;10;8;0;4287;6;0;415;11;9;0;2365;4;0;438;8
09.02.18;16:55:00;1;2346;8330;0;2;0;39;6;0;371;7;3;0;23;3;0;431;11;4;0;31;1;0;156;4;5;0;629;2;0;0;0;0;0;6;0;341;1;0;0;0;0;4;7;0;1812;6;0;415;11;8;0;4287;4;0;430;11;9;2;2365;3;1;437;8
09.02.18;16:50:00;1;2302;8135;0;2;0;39;6;0;377;7;3;0;23;6;0;446;11;4;0;31;1;0;162;4;5;0;629;2;0;0;0;0;0;6;0;341;2;0;0;0;0;4;7;0;1812;6;0;429;11;8;0;4287;3;2;423;11;9;0;2364;6;0;479;8
09.02.18;16:45:00;1;2456;7942;0;2;0;39;6;0;387;7;3;0;23;6;2;474;11;4;0;31;1;0;172;4;5;0;629;2;4;10;51;50;5;6;0;341;1;0;0;0;0;7;7;0;1812;3;2;437;11;8;5;4287;6;4;426;11;9;4;2364;6;4;465;8
09.02.18;16:40:00;1;2433;7739;0;2;0;39;6;0;396;8;3;0;23;6;1;492;11;4;0;31;1;0;179;4;5;0;629;2;0;2;159;157;10;6;0;341;2;6;4;121;179;13;7;0;1812;6;3;460;11;8;1;4287;6;4;470;11;9;2;2364;6;2;518;8
09.02.18;16:35:00;1;2461;7536;0;2;0;39;6;0;406;8;3;0;23;6;2;488;11;4;0;31;1;0;187;4;5;0;629;1;0;1;326;353;15;6;0;341;23;7;3;456;238;13;7;0;1812;6;5;472;11;8;1;4287;6;8;474;12;9;0;2364;6;4;528;8
09.02.18;16:30:00;1;1865;7332;0;2;0;39;6;0;414;8;3;0;23;6;3;493;11;4;0;31;1;0;196;4;5;0;629;23;0;2;400;432;16;6;0;341;23;5;3;241;488;14;7;4;1812;6;14;462;11;8;4;4287;6;7;493;12;9;0;2364;6;0;567;8
09.02.18;16:25:00;1;545;7200;0;2;0;39;4;0;410;8;3;0;23;6;0;546;11;4;0;31;1;0;204;4;5;0;629;23;0;2;409;424;16;6;0;341;23;4;3;181;566;14;7;7;1812;6;9;492;11;8;35;4286;6;58;404;12;9;9;2364;3;16;516;8
09.02.18;16:20:00;1;576;7154;0;2;0;39;3;1;402;8;3;0;23;3;4;507;11;4;0;31;1;0;208;4;5;0;629;26;0;1;418;485;16;6;0;341;23;5;4;181;574;14;7;34;1811;6;58;382;12;8;52;4284;4;90;433;12;9;4;2363;6;8;558;8
09.02.18;16:15:00;1;472;7107;0;2;0;39;6;1;402;8;3;0;23;6;2;525;12;4;0;31;1;0;212;4;5;0;629;26;0;3;424;457;16;6;0;341;23;4;2;507;261;14;7;42;1809;4;77;375;12;8;71;4279;4;101;423;12;9;6;2363;6;12;557;9
09.02.18;16:10:00;1;366;7069;0;2;0;39;6;1;419;8;3;0;23;6;2;534;12;4;0;31;1;0;202;5;5;0;629;26;0;8;424;483;16;6;0;341;23;5;4;249;517;14;7;52;1805;4;81;408;12;8;76;4273;4;105;396;12;9;6;2362;6;10;563;9
09.02.18;16:05:00;1;304;7039;0;2;0;39;6;2;416;8;3;0;22;6;3;534;12;4;0;31;1;0;217;5;5;0;629;23;0;5;426;464;17;6;0;341;23;6;5;181;587;14;7;67;1801;4;84;402;12;8;93;4267;4;122;418;12;9;9;2362;6;14;562;9
09.02.18;16:00:00;1;311;7012;0;2;0;39;6;1;410;8;3;0;22;6;2;520;12;4;0;31;1;0;219;5;5;0;629;23;0;5;429;519;16;6;0;341;23;7;6;181;590;14;7;72;1795;4;95;370;12;8;96;4259;4;129;445;12;9;8;2361;6;11;569;9
09.02.18;15:55:00;1;604;6968;0;2;0;39;6;0;434;8;3;0;22;6;0;567;12;4;0;31;1;0;222;5;5;5;629;1;0;4;419;512;17;6;0;341;23;6;6;181;592;14;7;79;1789;4;106;364;12;8;107;4251;4;139;407;12;9;22;2360;3;32;537;9
09.02.18;15:50:00;1;347;6929;0;2;2;39;4;3;411;8;3;1;22;4;6;520;12;4;0;31;1;0;224;5;5;12;628;26;1;3;423;639;16;6;0;341;23;6;5;181;595;14;7;80;1782;4;111;383;12;8;117;4242;4;148;401;12;9;21;2358;6;28;547;9
09.02.18;15:45:00;1;433;6896;0;2;2;38;3;4;406;8;3;0;22;6;4;544;12;4;0;31;1;0;228;5;5;7;628;26;1;3;425;642;17;6;0;341;23;6;5;182;599;14;7;93;1776;4;119;365;12;8;129;4233;4;167;427;12;9;68;2356;4;93;455;10
09.02.18;15:40:00;1;353;6861;0;2;1;38;6;2;427;8;3;2;22;6;6;523;12;4;0;31;1;0;233;5;5;7;627;26;1;4;430;668;17;6;0;341;23;5;5;182;604;15;7;102;1768;4;133;363;12;8;158;4222;4;189;432;12;9;81;2350;4;106;467;10
09.02.18;15:35:00;1;324;6833;0;2;2;38;6;3;428;8;3;1;22;6;4;550;12;4;0;31;3;0;206;6;5;4;626;4;0;2;441;690;17;6;0;341;23;6;4;182;607;15;7;117;1759;4;145;394;12;8;171;4209;4;208;410;12;9;95;2344;4;120;476;10
09.02.18;15:30:00;1;372;6806;0;2;2;38;6;2;431;8;3;0;22;6;3;557;12;4;0;31;3;0;224;6;5;31;626;4;3;5;427;660;17;6;0;341;23;8;5;183;610;15;7;136;1749;4;158;363;12;8;192;4195;4;228;420;13;9;88;2336;4;130;496;10
09.02.18;15:25:00;1;344;6778;0;2;2;38;6;3;430;8;3;1;22;6;4;555;12;4;0;31;3;0;227;6;5;7;625;4;1;2;441;687;17;6;0;341;23;7;4;270;615;15;7;145;1738;4;173;370;12;8;219;4179;4;257;446;13;9;117;2329;4;144;511;10
09.02.18;15:20:00;1;799;6749;0;2;2;38;6;5;418;8;3;4;22;4;9;529;12;4;0;31;3;0;215;6;5;4;624;4;2;5;438;688;17;6;0;341;8;7;5;446;615;15;7;147;1726;4;177;388;12;8;191;4157;0;221;374;10;9;121;2319;4;151;517;10
09.02.18;15:15:00;1;279;6694;0;2;5;37;3;8;411;8;3;4;21;3;10;527;12;4;0;31;3;0;214;6;5;17;623;4;1;5;440;698;17;6;0;341;8;8;4;376;616;15;7;149;1714;4;180;388;12;8;235;4142;4;274;448;13;9;123;2309;4;152;532;10
09.02.18;15:10:00;1;281;6671;0;2;0;37;6;4;435;8;3;1;21;6;4;561;12;4;0;31;3;0;220;6;5;22;623;4;5;3;429;685;18;6;0;341;8;4;2;415;618;16;7;163;1702;4;193;373;12;8;252;4122;4;288;458;13;9;132;2298;4;162;527;10
09.02.18;15:05:00;1;325;6647;0;2;1;37;6;10;414;8;3;2;21;6;5;557;12;4;0;31;3;0;217;6;5;8;622;4;1;2;445;707;18;6;0;341;23;6;2;456;620;16;7;171;1688;4;197;394;12;8;274;4101;4;313;446;13;9;145;2287;4;174;518;10
09.02.18;15:00:00;1;321;6620;0;2;0;37;6;4;436;8;3;1;21;6;5;567;12;4;0;31;3;0;223;6;5;16;621;4;2;7;438;695;18;6;0;341;23;5;3;511;622;16;7;184;1674;4;212;376;12;8;301;4078;4;339;460;13;9;158;2275;4;188;526;10
09.02.18;14:55:00;1;347;6592;0;2;1;37;6;5;435;8;3;2;21;6;6;564;12;4;0;31;3;0;239;6;5;15;620;4;0;2;452;716;18;6;0;341;8;7;3;491;624;16;7;194;1658;4;228;369;12;8;316;4053;4;354;448;13;9;171;2262;4;198;529;10
09.02.18;14:50:00;1;349;6563;0;2;0;36;6;0;456;8;3;0;20;4;5;552;12;4;0;31;3;0;225;6;5;19;618;4;4;6;440;703;19;6;0;341;23;6;2;525;626;16;7;215;1642;4;242;358;12;8;347;4026;4;388;483;13;9;184;2248;4;217;527;10
09.02.18;14:45:00;1;378;6534;0;2;4;36;3;11;416;8;3;5;20;3;13;538;12;4;0;31;3;0;221;6;5;69;617;4;17;21;386;613;20;6;0;341;1;9;3;478;627;17;7;224;1624;4;250;364;12;8;365;3997;4;404;473;13;9;197;2233;4;227;527;11
09.02.18;14:40:00;1;1143;6502;0;2;2;36;6;5;442;8;3;0;20;6;6;575;11;4;0;31;3;0;219;6;5;74;611;4;19;19;386;613;20;6;0;341;8;4;3;535;630;17;7;243;1606;4;271;371;12;8;410;3967;4;445;475;13;9;217;2216;4;248;511;11
09.02.18;14:35:00;1;1091;6436;0;2;3;36;6;5;427;8;3;0;20;6;6;566;11;4;0;31;3;0;233;6;5;76;605;4;24;24;386;613;20;6;0;341;8;6;1;435;630;17;7;253;1585;4;281;383;12;8;429;3933;4;470;472;13;9;229;2198;4;260;519;11
09.02.18;14:30:00;1;919;6347;0;2;1;36;6;4;444;7;3;0;20;6;6;575;11;4;0;31;3;0;237;6;5;75;599;4;22;25;386;613;20;6;0;341;23;6;4;515;629;17;7;243;1564;4;272;370;12;8;428;3897;4;469;470;13;9;229;2179;4;260;512;11
09.02.18;14:25:00;1;2071;6238;0;2;2;35;6;7;440;7;3;0;20;6;7;571;11;4;0;31;3;0;246;6;5;77;593;4;23;26;386;613;20;6;0;341;1;11;5;451;631;17;7;245;1544;4;271;372;12;8;429;3862;4;479;485;13;9;233;2160;4;269;526;11
09.02.18;14:20:00;1;2087;6065;0;2;2;35;6;5;443;7;3;0;20;6;0;596;11;4;0;31;3;0;228;7;5;76;586;4;23;27;386;613;20;6;0;341;8;6;2;482;631;18;7;246;1523;4;274;372;12;8;446;3826;4;491;475;13;9;240;2141;4;276;520;11
09.02.18;14:15:00;1;2088;5892;0;2;6;35;3;14;422;7;3;2;20;3;14;541;11;4;0;31;3;0;223;7;5;81;580;4;26;25;386;613;20;6;0;341;8;7;3;513;632;18;7;266;1503;4;291;359;12;8;480;3789;4;518;470;13;9;258;2121;4;294;521;11
09.02.18;14:10:00;1;2097;5726;0;2;2;34;6;5;442;7;3;1;19;6;6;577;11;4;0;31;3;0;229;7;5;80;573;4;26;26;386;613;20;6;0;341;8;12;3;446;631;18;7;254;1481;4;281;356;12;8;491;3749;4;537;473;13;9;266;2099;4;299;526;11
09.02.18;14:05:00;1;1022;5559;0;2;3;34;6;7;440;7;3;2;19;6;14;537;11;4;0;31;3;0;234;7;5;78;566;4;25;27;386;613;20;6;0;341;8;5;2;485;631;18;7;252;1459;4;281;369;12;8;503;3708;4;540;472;13;9;270;2077;4;305;530;11
09.02.18;14:00:00;1;760;5494;0;2;5;34;6;11;427;7;3;0;19;6;6;578;11;4;1;31;3;1;199;7;5;82;560;4;27;26;386;613;19;6;18;341;8;20;21;504;569;19;7;266;1438;4;291;362;12;8;528;3666;4;563;471;13;9;234;2055;4;264;438;9
09.02.18;13:55:00;1;344;5442;0;2;4;34;6;8;442;7;3;2;19;6;7;575;11;4;0;31;3;0;199;7;5;87;553;4;29;28;386;613;19;6;54;340;4;27;29;464;443;20;7;281;1416;4;304;354;12;8;564;3622;4;597;472;13;9;295;2031;4;335;533;11
09.02.18;13:50:00;1;392;5413;0;2;3;33;6;7;447;7;3;0;19;6;0;607;11;4;0;31;3;0;200;7;5;91;546;4;32;32;386;613;19;6;58;335;4;27;32;464;443;19;7;297;1393;4;317;357;12;8;594;3575;4;636;473;13;9;317;2007;4;353;536;11
09.02.18;13:45:00;1;432;5380;0;2;4;33;4;8;444;7;3;5;19;3;17;542;11;4;6;31;3;6;199;7;5;97;538;4;34;36;386;613;19;6;63;330;4;32;33;464;444;19;7;305;1368;4;330;361;12;8;608;3526;4;653;483;13;9;328;1980;4;366;525;11
09.02.18;13:40:00;1;458;5344;0;2;5;32;6;8;449;7;3;2;18;6;7;584;11;4;5;30;3;5;199;7;5;104;530;4;39;38;386;613;19;6;65;325;4;22;25;464;443;19;7;308;1343;4;336;372;12;8;636;3475;4;683;490;13;9;342;1953;4;384;531;11
09.02.18;13:35:00;1;436;5306;0;2;6;32;6;10;446;7;3;3;18;6;9;580;11;4;0;30;3;0;199;7;5;107;521;4;44;40;386;613;19;6;68;319;4;28;30;464;443;19;7;324;1317;4;348;363;12;8;670;3422;4;721;483;13;9;362;1924;4;403;528;11
09.02.18;13:30:00;1;389;5269;0;2;4;32;6;8;450;7;3;4;18;6;16;556;11;4;8;30;3;9;199;7;5;105;512;4;47;40;386;613;19;6;70;313;4;33;35;464;443;19;7;334;1290;4;356;354;12;8;685;3366;4;738;489;13;9;374;1894;4;416;533;11
09.02.18;13:25:00;1;390;5236;0;2;5;31;6;10;446;7;3;2;18;6;9;580;11;4;8;29;3;9;199;7;5;108;503;4;41;41;386;613;19;6;72;307;4;41;44;464;443;19;7;334;1262;4;361;365;12;8;703;3310;4;747;473;13;9;381;1864;4;426;538;12
09.02.18;13:20:00;1;389;5204;0;2;5;31;6;9;450;7;3;2;17;6;7;586;11;4;6;28;3;7;199;7;5;110;494;4;47;41;386;613;19;6;73;301;4;40;43;464;443;19;7;343;1234;4;371;376;12;8;727;3251;4;774;466;13;9;400;1831;4;444;532;12
09.02.18;13:15:00;1;862;5171;0;2;5;30;4;9;451;7;3;7;17;4;16;556;11;4;0;28;3;0;199;7;5;114;485;4;49;43;386;613;19;6;75;295;4;32;32;464;443;19;7;357;1206;4;386;379;12;8;775;3190;4;817;477;13;9;424;1798;4;465;526;12